TimeCST,TemperatureF,Dew PointF,Humidity,Sea Level PressureIn,VisibilityMPH,Wind Direction,Wind SpeedMPH,Gust SpeedMPH,PrecipitationIn,Events,Conditions,WindDirDegrees,DateUTC
12:53 AM,46.0,39.0,76,30.10,10.0,WSW,3.5,-,N/A,,Clear,240,2012-11-07 06:53:00
1:53 AM,42.1,37.0,82,30.10,10.0,SW,4.6,-,N/A,,Clear,230,2012-11-07 07:53:00
2:53 AM,44.1,37.0,76,30.11,10.0,WSW,4.6,-,N/A,,Clear,240,2012-11-07 08:53:00
3:53 AM,41.0,37.0,86,30.11,10.0,WSW,4.6,-,N/A,,Clear,240,2012-11-07 09:53:00
4:53 AM,44.1,39.0,82,30.12,10.0,West,3.5,-,N/A,,Clear,260,2012-11-07 10:53:00
5:53 AM,39.0,35.1,86,30.14,10.0,West,5.8,-,N/A,,Clear,260,2012-11-07 11:53:00
6:53 AM,39.0,35.1,86,30.16,10.0,West,4.6,-,N/A,,Clear,260,2012-11-07 12:53:00
7:53 AM,45.0,37.9,76,30.17,10.0,WSW,3.5,-,N/A,,Clear,240,2012-11-07 13:53:00
8:53 AM,48.9,36.0,61,30.18,10.0,WSW,9.2,-,N/A,,Clear,250,2012-11-07 14:53:00
9:53 AM,54.0,34.0,47,30.18,10.0,WSW,6.9,-,N/A,,Clear,250,2012-11-07 15:53:00
10:53 AM,59.0,33.1,38,30.17,10.0,WNW,8.1,-,N/A,,Clear,300,2012-11-07 16:53:00
11:53 AM,64.0,28.0,26,30.14,10.0,NW,12.7,19.6,N/A,,Clear,320,2012-11-07 17:53:00
12:53 PM,64.9,27.0,24,30.12,10.0,WNW,11.5,18.4,N/A,,Clear,300,2012-11-07 18:53:00
1:53 PM,66.9,26.1,21,30.09,10.0,NW,13.8,18.4,N/A,,Clear,310,2012-11-07 19:53:00
2:53 PM,68.0,26.1,21,30.09,10.0,North,6.9,-,N/A,,Clear,350,2012-11-07 20:53:00
3:53 PM,68.0,26.1,21,30.09,10.0,NNW,6.9,-,N/A,,Clear,340,2012-11-07 21:53:00
4:53 PM,64.0,26.1,24,30.09,10.0,North,8.1,-,N/A,,Clear,350,2012-11-07 22:53:00
5:53 PM,55.9,28.9,36,30.10,10.0,North,5.8,-,N/A,,Clear,360,2012-11-07 23:53:00
6:53 PM,54.0,30.0,40,30.11,10.0,Calm,Calm,-,N/A,,Clear,0,2012-11-08 00:53:00
7:53 PM,48.9,32.0,52,30.12,10.0,Calm,Calm,-,N/A,,Clear,0,2012-11-08 01:53:00
8:53 PM,46.0,32.0,58,30.13,10.0,Calm,Calm,-,N/A,,Clear,0,2012-11-08 02:53:00
9:53 PM,45.0,32.0,60,30.13,10.0,Calm,Calm,-,N/A,,Clear,0,2012-11-08 03:53:00
10:53 PM,45.0,35.1,68,30.13,10.0,ENE,6.9,-,N/A,,Clear,60,2012-11-08 04:53:00
11:53 PM,44.1,36.0,73,30.15,10.0,NE,5.8,-,N/A,,Clear,50,2012-11-08 05:53:00